Flag for U.S.A. Weather past 2 weeks in Escondido, California, U.S.A.

Now
68 °F

Sunny.


Feels Like: 68 °F
Forecast: 63 / 89 °F
Wind: 5 mph from Northwest

Location: Ramona Airport

Current Time: Jul 12, 2014 at 10:04:23 PM

Latest Report: Jul 12, 2014 at 8:53 PM


Visibility: 10 mi

Pressure: 29.93 "Hg

Humidity: 68%

Dew point: 57 °F

Location of EscondidoLocation

Historic Weather in Escondido — Graph

°F

Escondido temperature yesterday

Maximum temperature yesterday: 85 °F (at 12:53 PM)
Minimum temperature yesterday: 58 °F (at 1:53 AM)
Average temperature yesterday: 70 °F

Past Weeks' High & Low Weather Summary

 TemperatureHumidityPressure
High94 °F (Jul 3, 12:53 PM)100% (Jun 28, 3:53 AM)30.00 "Hg (Jun 28, 3:53 AM)
Low53 °F (Jun 28, 5:53 AM)13% (Jul 7, 2:53 PM)29.80 "Hg (Jul 1, 5:53 PM)
Average72 °F62%29.89 "Hg
* Reported Jun 27 8:53 PM — Jul 12 8:53 PM, Escondido, Weather by CustomWeather, © 2014

Note: Actual official high and low records may vary slightly from our data, if they occured in-between our weather recording intervals... More about our weather records

Advertising

Escondido weather history for previous 24 hours

 ConditionsComfort  
Time TempWeatherWind HumidityBarometerVisibility
8:53 PM
Jul 12
68 °FSunny.5 mph68%29.93 "Hg10 mi
7:53 PM71 °FSunny.7 mph61%29.93 "Hg10 mi
6:53 PM75 °FMild.9 mph54%29.92 "Hg10 mi
5:53 PM79 °FSunny.9 mph45%29.91 "Hg10 mi
4:53 PM80 °FSunny.13 mph45%29.92 "Hg10 mi
3:53 PM82 °FSunny.12 mph41%29.93 "Hg10 mi
2:53 PM81 °FSunny.12 mph45%29.95 "Hg10 mi
1:53 PM85 °FSunny.12 mph42%29.95 "Hg10 mi
12:53 PM86 °FSunny.8 mph37%29.96 "Hg10 mi
11:53 AM81 °FSunny.10 mph44%29.98 "Hg10 mi
10:53 AM78 °FSunny.10 mph50%29.98 "Hg10 mi
9:53 AM75 °FSunny.6 mph60%29.98 "Hg10 mi
8:53 AM68 °FSunny.5 mph76%29.99 "Hg10 mi
7:53 AM61 °FFog.3 mph97%29.99 "Hg4 mi
6:53 AM60 °FFog.No wind96%29.98 "Hg0 mi
5:53 AM58 °FFog.No wind100%29.98 "Hg0 mi
4:53 AM57 °FFog.No wind96%29.96 "Hg0 mi
3:53 AM58 °FPassing clouds.No wind87%29.95 "Hg10 mi
2:53 AM59 °FClear.No wind93%29.95 "Hg7 mi
1:53 AM60 °FClear.No wind93%29.96 "Hg10 mi
12:53 AM63 °FClear.6 mph90%29.96 "Hg10 mi
11:53 PM
Jul 11
63 °FClear.6 mph84%29.97 "Hg10 mi
10:53 PM64 °FClear.3 mph81%29.98 "Hg10 mi
Weather by CustomWeather, © 2014

See weather overviewHow to use our weather pages